This is the latest recevied weather packets stored in our database for station/object KI4NG. If no packets are shown the sender has not sent any weather packets the latest 1 day(s).
| Time | Temp. | Humidity | Pressure | Rain* | Wind** | Luminosity | Snow |
|---|---|---|---|---|---|---|---|
| 1778084890 | 18.89° C | 99% | 1012.8 hPa | 0 mm | - | 343 W/m² | - |
| 1778083983 | 17.78° C | 99% | 1013 hPa | 0 mm | - | 349 W/m² | - |
| 1778082772 | 17.22° C | 99% | 1012.9 hPa | 0 mm | - | 108 W/m² | - |
| 1778081038 | 17.22° C | 99% | 1012.5 hPa | 0 mm | - | 121 W/m² | - |
| 1778080737 | 17.22° C | 99% | 1012.4 hPa | 0 mm | - | 156 W/m² | - |
| 1778079220 | 16.67° C | 99% | 1011.5 hPa | 1.78 mm | - | 169 W/m² | - |
| 1778078614 | 16.67° C | 99% | 1011.8 hPa | 1.78 mm | - | 81 W/m² | - |
| 1778078313 | 16.67° C | 99% | 1012.3 hPa | 0 mm | - | 72 W/m² | - |
| 1778077708 | 16.67° C | 99% | 1012.6 hPa | 0 mm | - | 61 W/m² | - |
| 1778075893 | 16.67° C | 99% | 1012.6 hPa | 1.78 mm | - | 60 W/m² | - |
| 1778075589 | 16.67° C | 99% | 1012.3 hPa | 1.78 mm | - | 68 W/m² | - |
| 1778074376 | 16.67° C | 99% | 1012 hPa | 1.78 mm | - | 54 W/m² | - |
| 1778074073 | 16.67° C | 99% | 1011.6 hPa | 3.05 mm | - | 39 W/m² | - |
| 1778071046 | 16.11° C | 99% | 1011.2 hPa | 1.78 mm | - | 45 W/m² | - |
| 1778070441 | 16.11° C | 99% | 1011.1 hPa | 0 mm | - | 13 W/m² | - |
| 1778068928 | 16.11° C | 99% | 1010.8 hPa | 0 mm | - | 45 W/m² | - |
| 1778068626 | 16.11° C | 99% | 1010.6 hPa | 0 mm | - | 30 W/m² | - |
| 1778068324 | 16.11° C | 99% | 1010.8 hPa | 0 mm | - | 57 W/m² | - |
| 1778068021 | 15.56° C | 99% | 1010.9 hPa | 0 mm | - | 29 W/m² | - |
| 1778067114 | 15.56° C | 99% | 1011.1 hPa | 0 mm | - | 8 W/m² | - |
| 1778066508 | 15.56° C | 99% | 1011.3 hPa | 0 mm | - | 5 W/m² | - |
| 1778064389 | 15.56° C | 99% | 1010.2 hPa | 0 mm | - | 0 W/m² | - |
| 1778064086 | 15.56° C | 99% | 1009.8 hPa | 0 mm | - | 0 W/m² | - |
| 1778063480 | 15° C | 99% | 1010.1 hPa | 1.27 mm | - | 0 W/m² | - |
| 1778062572 | 15.56° C | 99% | 1009.7 hPa | 7.87 mm | - | 0 W/m² | - |
* Rain latest hour (hover to see other rain measurements)
** Current wind speed in m/s (hover to see current wind gust speed)